OBJECT AD, 62404

Orbit data source: Space-Track

You're viewing an Uncataloged Satellite

Recently launched and/or uncataloged satellites may have evolving metadata. Metadata may include but not limited to: Owner, Maufacturer, Bus, Motor, and Mission.

OBJECT AD, 62404 is a satellite in LEO that was launched on Sat, 21 Dec 2024 UTC via an FALCON 9 launch vehicle from the Air Force Western Test Range (AFWTR). Unknown objects in Earth's orbit typically refer to objects detected orbiting the Earth but have not yet been identified or cataloged. These objects could be anything from previously untracked satellites, spent rocket stages, debris from satellite collisions, or even natural meteoroids temporarily captured by Earth's gravity.

Loading next visibility...
Identifier
62404, 2024-247AD
Orbit
LEO
Country
Flag of TBDTBD
Related business
None
Manufacturer
Unknown
Mission
Operational Commercial Communications
Bus & Motor
Unknown
Mass
Unknown
Launch date (UTC)
2024-12-21 (1 year ago)
Launch vehicle
FALCON 9
Launch site
Air Force Western Test Range (AFWTR)
Object type
Unknown
Shape & HBR
Box, 0.0 m
Radar Cross Section
0.004 m², Small (<0.1 m²)

Expand to show TLE details & history
Last TLE update: 12 hours ago

TLE from 12 hours ago
0 OBJECT AD
1 62404U 24247AD  26023.60477622  .00052216  00000-0  12683-2 0  9990
2 62404  44.9987 342.7210 0007689  96.1448 264.0316 15.40271480 61089
Epoch: 2026-01-23T14:30Z
TLE epoch observation values (Epoch: 2026-01-23T14:30:52.665Z)
Latitude
-0.00002°
Longitude
2.06034°
Altitude
445.855 km
Speed
7.646 km/s
True Right ascension
22h 50m 53s
True Declination
0° 00' 00"
Sunlit
Object was in daylight at epoch
Visualization orbit readout
Latitude
Unknown
Longitude
Unknown
Altitude
Unknown
Speed
Unknown
Apparent Right ascension
Unknown
Apparent Declination
Unknown
Sunlit
N/A
Visualization observer readout
Local Sidereal Time
03:47:05
Azimuth
Unknown
Elevation
Unknown
Doppler factor
Unknown
Orbital elements
Apogee altitude
452.174 km
Perigee altitude
441.678 km
Semi-major axis
6,825.063 km
Eccentricity
0.00077
Inclination
44.9987°
RAAN
342.721°
Arg. of periapsis
96.1448°
True anomaly
263.94398°
Mean anomaly
264.0316°
Eccentric anomaly
263.98779°
Mean motion
3.84931 °/min
Orbital period
93.52 mins
BSTAR
0.0012683
Loading maneuver chart data...
Computing Atmospheric mass density...
Loading historical data...
Loading historical data...
Loading historical data...
Loading historical data...
Loading historical data...
Loading historical data...
Loading historical data...

Documentation

Showing up to 5 results
|